Weather in Dalnerechensk

Russia / Primorsky Krai     45°55′51″N   133°43′54″E
temp.,
°C
wind,
m/s
gust,
m/s
humid.,
%
clouds,
%
prec.,
mm/h
press.,
hPa
HPBL,
m
5 march, fri
fri501:000sw61396100 3.1 1012481
04:000ssw61193100 3.3 1012303
07:000ssw61489100 0.0 1011401
10:00−2w91297100 1.7 1012560
13:00−9wnw101583100 1.2 1016644
16:00−12wnw9146995 1.2 1023783
19:00−15wnw512760 0.0 1028717
22:00−17wnw414780 0.0 1030817
6 march, sat
sat601:00−19wnw413810 0.0 1032884
04:00−20w412850 0.0 1033741
07:00−20w412850 0.0 1035517
10:00−17wnw69770 0.0 1036861
13:00−14wnw687488 0.0 10351005
16:00−12wnw687292 0.0 10331012
19:00−15w238316 0.0 103429
22:00−16sw23837 0.0 103524
7 march, sun
sun701:00−16ssw34900 0.0 103460
04:00−18sw33930 0.0 103355
07:00−18ssw339050 0.0 103250
10:00−14s368775 0.0 1031283
13:00−9ssw477635 0.0 1027720
16:00−7sw477668 0.0 1024761
19:00−10wsw2384100 0.0 102429
22:00−11wsw2285100 0.0 102522
8 march, mon
mon801:00−12wsw1290100 0.0 102521
04:00−13w239594 0.0 102629
07:00−14w339424 0.0 102855
10:00−11w468511 0.0 1029297
13:00−7w36800 0.0 1029592
16:00−5sw45778 0.0 1027745
19:00−9s368815 0.0 102683
22:00−10s33847 0.0 102649
9 march, tue
tue901:00−11se23800 0.0 102424
04:00−11se23822 0.0 102121
07:00−11se348440 0.0 101760
10:00−3ssw6168148 0.0 1013620
13:00+1sw8148071 0.0 10111108
16:00+1w7128877 0.2 1011941
19:00−2w71488100 2.4 1013779
22:00−5nw51482100 2.5 1017902